TimeEST,TemperatureF,Dew PointF,Humidity,Sea Level PressureIn,VisibilityMPH,Wind Direction,Wind SpeedMPH,Gust SpeedMPH,PrecipitationIn,Events,Conditions,WindDirDegrees,DateUTC
12:00 AM,32.0,30.2,93,30.08,3.0,Calm,Calm,-,N/A,,Clear,0,2014-01-17 05:00:00
12:53 AM,30.9,28.0,89,30.06,7.0,Calm,Calm,-,N/A,,Clear,0,2014-01-17 05:53:00
1:53 AM,32.0,28.0,85,30.08,8.0,Calm,Calm,-,N/A,,Clear,0,2014-01-17 06:53:00
2:53 AM,36.0,28.9,76,30.09,10.0,West,6.9,-,N/A,,Clear,260,2014-01-17 07:53:00
3:53 AM,36.0,27.0,70,30.08,10.0,WSW,8.1,-,N/A,,Clear,250,2014-01-17 08:53:00
4:53 AM,34.0,26.1,73,30.07,10.0,WSW,6.9,-,N/A,,Clear,240,2014-01-17 09:53:00
5:53 AM,34.0,25.0,70,30.07,10.0,SW,4.6,-,N/A,,Clear,220,2014-01-17 10:53:00
6:53 AM,34.0,24.1,67,30.09,10.0,Calm,Calm,-,N/A,,Clear,0,2014-01-17 11:53:00
8:53 AM,42.1,26.1,53,30.10,10.0,SW,5.8,-,N/A,,Clear,230,2014-01-17 13:53:00
9:53 AM,48.0,25.0,41,30.11,10.0,SW,8.1,-,N/A,,Clear,230,2014-01-17 14:53:00
10:53 AM,51.1,21.9,32,30.10,10.0,SSW,10.4,-,N/A,,Clear,210,2014-01-17 15:53:00
11:53 AM,55.0,27.0,34,30.06,10.0,SSW,10.4,-,N/A,,Clear,200,2014-01-17 16:53:00
12:53 PM,57.0,27.0,32,30.02,10.0,SSW,13.8,18.4,N/A,,Clear,210,2014-01-17 17:53:00
1:53 PM,57.9,28.9,33,29.99,10.0,SSW,15.0,-,N/A,,Clear,210,2014-01-17 18:53:00
2:53 PM,57.9,33.1,39,29.97,10.0,SSW,10.4,20.7,N/A,,Clear,200,2014-01-17 19:53:00
3:53 PM,57.0,35.1,44,29.96,10.0,South,18.4,24.2,N/A,,Clear,190,2014-01-17 20:53:00
4:53 PM,54.0,37.9,55,29.96,10.0,South,8.1,-,N/A,,Clear,180,2014-01-17 21:53:00
5:53 PM,54.0,39.9,59,29.94,10.0,South,9.2,-,N/A,,Clear,180,2014-01-17 22:53:00
6:53 PM,54.0,41.0,62,29.94,10.0,South,11.5,-,N/A,,Clear,190,2014-01-17 23:53:00
7:53 PM,55.9,43.0,62,29.93,10.0,SSW,12.7,-,N/A,,Clear,200,2014-01-18 00:53:00
8:53 PM,55.9,43.0,62,29.93,10.0,SSW,10.4,-,N/A,,Clear,210,2014-01-18 01:53:00
9:53 PM,55.9,44.1,64,29.93,10.0,SSW,9.2,-,N/A,,Clear,210,2014-01-18 02:53:00
10:53 PM,55.9,46.0,69,29.90,10.0,SSW,11.5,-,N/A,,Clear,200,2014-01-18 03:53:00
11:53 PM,55.9,46.9,72,29.87,10.0,SW,9.2,-,N/A,,Mostly Cloudy,230,2014-01-18 04:53:00